HG5PBP-13 Weather Reports


time (UTC)temp
F
wind
direction
speed
knots
gust
knots
rain 1hr
in
rain 24hr
in
rain mn
in
humidity
%
barometer
mb
20260507052432 56 133 1.7 4.3 0.00 0.03 0.00 7 1010.4
20260507051932 56 257 1.7 5.2 0.00 0.03 0.00 7 1010.4
20260507051432 56 266 1.7 7.0 0.00 0.03 0.00 7 1010.4
20260507050432 56 242 3.5 4.3 0.00 0.03 0.00 7 1010.1
20260507045932 56 260 1.7 7.0 0.00 0.03 0.00 7 1010.3
20260507045432 56 211 0.9 4.3 0.00 0.03 0.00 7 1010.3
20260507044932 56 212 3.5 4.3 0.00 0.03 0.00 7 1010.2
20260507043932 55 261 1.7 5.2 0.00 0.03 0.00 7 1010.0
20260507043432 56 261 1.7 8.7 0.00 0.03 0.00 7 1009.6
20260507042932 56 260 1.7 7.0 0.00 0.03 0.00 7 1009.8
20260507042432 56 236 3.5 10.4 0.00 0.03 0.00 7 1009.6
20260507041932 56 226 4.3 8.7 0.00 0.03 0.00 7 1009.5
20260507041432 56 227 4.3 7.0 0.00 0.03 0.00 7 1009.4
20260507040932 55 236 1.7 12.2 0.00 0.03 0.00 8 1009.4
20260507040432 55 248 4.3 8.7 0.00 0.03 0.00 8 1009.5
20260507035932 55 257 7.0 12.2 0.00 0.03 0.00 8 1009.3
20260507035432 55 232 5.2 7.8 0.00 0.03 0.00 8 1009.2
20260507034932 55 211 4.3 12.2 0.00 0.03 0.00 8 1009.2
20260507034431 55 230 4.3 7.8 0.00 0.03 0.00 8 1009.4
20260507033931 55 294 3.5 7.8 0.00 0.03 0.00 8 1009.4
20260507033431 55 264 6.1 9.6 0.00 0.03 0.00 8 1009.3
20260507032931 55 232 3.5 7.8 0.00 0.03 0.00 8 1009.3
20260507032431 56 243 1.7 8.7 0.00 0.03 0.00 8 1009.3
20260507031931 56 226 7.0 12.2 0.00 0.03 0.00 7 1009.5
20260507031431 56 250 5.2 9.6 0.00 0.03 0.00 7 1009.3
20260507030931 56 201 3.5 9.6 0.00 0.03 0.00 7 1009.1
20260507030431 56 312 4.3 8.7 0.00 0.03 0.00 7 1009.3
20260507025931 56 253 3.5 11.3 0.00 0.03 0.00 7 1009.3
20260507025431 56 255 3.5 9.6 0.00 0.03 0.00 7 1009.3
20260507024931 56 215 2.6 10.4 0.00 0.03 0.00 7 1009.1
20260507024431 57 307 5.2 8.7 0.00 0.03 0.00 7 1009.1
20260507023931 57 238 5.2 11.3 0.00 0.03 0.00 7 1009.3
20260507023431 57 254 3.5 10.4 0.00 0.03 0.00 7 1009.1
20260507022931 57 326 4.3 10.4 0.00 0.03 0.00 7 1009.1
20260507022431 57 189 4.3 10.4 0.00 0.03 0.00 7 1009.1
20260507021931 57 222 4.3 10.4 0.00 0.03 0.00 7 1009.0
20260507021431 58 283 2.6 10.4 0.00 0.03 0.00 7 1008.8
20260507020931 58 223 4.3 10.4 0.00 0.03 0.00 7 1009.1
20260507020431 58 264 6.1 10.4 0.00 0.03 0.00 7 1009.3
20260507015931 58 288 5.2 8.7 0.00 0.03 0.00 7 1008.8
20260507015431 58 290 3.5 12.2 0.00 0.03 0.00 7 1009.1
20260507014931 58 249 3.5 9.6 0.00 0.03 0.00 7 1009.0
20260507014431 57 251 3.5 8.7 0.00 0.03 0.00 7 1008.9
20260507013931 57 302 4.3 8.7 0.00 0.03 0.00 7 1009.2
20260507013431 57 259 4.3 11.3 0.00 0.03 0.00 7 1009.1
20260507012931 57 244 4.3 10.4 0.00 0.03 0.00 7 1009.3
20260507012431 58 308 4.3 9.6 0.00 0.03 0.00 7 1009.3
20260507011931 58 134 2.6 10.4 0.00 0.03 0.00 7 1009.2
20260507011431 58 239 7.0 9.6 0.00 0.03 0.00 7 1009.4
20260507010931 58 235 7.0 9.6 0.00 0.03 0.00 7 1009.1
20260507010431 58 273 3.5 10.4 0.00 0.03 0.00 7 1009.1
20260507005930 58 263 2.6 7.0 0.00 0.03 0.00 7 1009.2
20260507005430 58 279 3.5 9.6 0.00 0.03 0.00 7 1009.1
20260507004930 58 238 3.5 7.0 0.00 0.03 0.00 7 1009.2
20260507004431 58 247 2.6 9.6 0.00 0.03 0.00 7 1009.1
20260507003930 58 284 2.6 7.0 0.00 0.03 0.00 7 1009.3
20260507003430 58 243 1.7 8.7 0.00 0.03 0.00 7 1009.3
20260507002930 58 273 3.5 13.0 0.00 0.03 0.00 7 1009.4
20260507002430 58 277 0.9 7.8 0.00 0.03 0.00 7 1009.3
20260507001930 58 259 1.7 7.0 0.00 0.03 0.00 7 1009.5
20260507001430 59 223 7.8 10.4 0.00 0.03 0.00 7 1009.5
20260507000930 59 276 1.7 11.3 0.00 0.03 0.00 7 1009.5
20260507000430 59 253 1.7 7.8 0.00 0.03 0.00 7 1009.7
20260506235930 58 287 3.5 7.8 0.00 0.03 0.00 7 1009.6
20260506235430 58 188 5.2 8.7 0.00 0.03 0.00 7 1009.9
20260506234930 58 236 1.7 3.5 0.00 0.03 0.00 7 1009.7
20260506234430 58 245 2.6 9.6 0.00 0.03 0.00 7 1009.8
20260506233930 58 209 4.3 7.0 0.00 0.03 0.00 7 1009.7
20260506233430 58 269 3.5 4.3 0.00 0.03 0.00 7 1009.8
20260506232930 58 246 0.9 7.0 0.00 0.03 0.00 8 1010.0
20260506232430 57 182 0.9 7.0 0.00 0.03 0.00 8 1009.8
20260506231930 57 254 5.2 9.6 0.00 0.03 0.00 8 1010.3
20260506231430 57 251 1.7 9.6 0.00 0.03 0.00 8 1010.0
20260506230930 57 286 3.5 9.6 0.00 0.03 0.00 8 1010.1
20260506230430 57 203 6.1 13.0 0.00 0.03 0.00 8 1010.4
20260506225930 57 210 4.3 10.4 0.00 0.03 0.00 8 1010.1
20260506225430 58 175 5.2 8.7 0.00 0.02 0.00 7 1009.9
20260506224930 58 175 7.0 15.6 0.00 0.02 0.00 7 1009.9
20260506224430 59 187 5.2 11.3 0.00 0.02 0.00 7 1010.0
20260506223930 59 272 1.7 10.4 0.00 0.02 0.00 7 1009.9
20260506223430 60 142 1.7 11.3 0.00 0.02 0.00 7 1009.7
20260506222930 60 199 5.2 9.6 0.00 0.02 0.00 7 1009.4
20260506222429 60 11 2.6 10.4 0.00 0.02 0.00 7 1009.2
20260506221929 60 231 2.6 10.4 0.00 0.02 0.00 7 1008.8
20260506221429 60 244 4.3 10.4 0.00 0.02 0.00 7 1008.8
20260506220929 60 236 3.5 13.0 0.00 0.02 0.00 7 1008.9
20260506220429 60 153 2.6 5.2 0.00 0.02 0.00 7 1009.2
20260506215929 60 279 0.9 8.7 0.00 0.02 0.02 7 1009.0
20260506215429 60 240 2.6 7.0 0.00 0.02 0.02 7 1009.0
20260506214929 60 259 3.5 5.2 0.00 0.02 0.02 7 1008.8
20260506214429 60 271 3.5 5.2 0.00 0.02 0.02 7 1008.7
20260506213929 60 251 1.7 8.7 0.00 0.02 0.02 7 1008.7
20260506213429 61 247 5.2 9.6 0.00 0.02 0.02 7 1008.8
20260506212929 61 231 4.3 9.6 0.00 0.02 0.02 7 1008.8
20260506212429 61 245 5.2 8.7 0.00 0.02 0.02 7 1009.0
20260506211929 61 231 4.3 7.0 0.00 0.02 0.02 7 1008.7
20260506211429 60 286 5.2 13.0 0.00 0.02 0.02 7 1008.9
20260506210929 60 260 3.5 8.7 0.00 0.03 0.02 7 1008.7
20260506210429 60 240 3.5 7.8 0.00 0.03 0.02 7 1008.7
20260506205929 60 270 3.5 9.6 0.01 0.02 0.02 7 1008.9
20260506205429 60 256 3.5 7.0 0.02 0.04 0.02 7 1008.8
20260506204929 59 352 4.3 8.7 0.02 0.04 0.02 7 1008.9
20260506204429 59 319 3.5 4.3 0.02 0.04 0.02 7 1009.0
20260506203929 59 244 3.5 7.8 0.02 0.04 0.02 7 1009.1
20260506203429 58 250 2.6 7.0 0.02 0.04 0.02 8 1009.0
20260506202929 58 239 4.3 11.3 0.02 0.04 0.02 8 1009.2
20260506202429 58 158 3.5 8.7 0.02 0.04 0.02 8 1009.3
20260506201929 58 202 3.5 8.7 0.02 0.04 0.02 8 1009.5
20260506201429 58 192 2.6 7.0 0.02 0.04 0.02 8 1009.5
20260506200929 58 254 3.5 11.3 0.02 0.03 0.02 8 1009.8
20260506200429 59 257 2.6 11.3 0.02 0.03 0.02 8 1009.6
20260506195929 60 169 7.0 12.2 0.01 0.01 0.01 7 1009.6
20260506195428 62 251 5.2 11.3 0.00 0.00 0.00 7 1009.3
20260506194928 63 254 5.2 13.0 0.00 0.00 0.00 6 1009.1
20260506194428 64 231 7.0 12.2 0.00 0.00 0.00 6 1008.8
20260506193928 65 260 4.3 12.2 0.00 0.00 0.00 6 1008.5
20260506193428 65 270 8.7 16.5 0.00 0.00 0.00 5 1008.5
20260506192928 66 225 4.3 8.7 0.00 0.00 0.00 5 1008.4
20260506192428 66 188 0.9 5.2 0.00 0.00 0.00 5 1008.1
20260506191928 65 235 0.9 3.5 0.00 0.00 0.00 5 1008.2
20260506191428 66 265 3.5 5.2 0.00 0.00 0.00 5 1008.0
20260506190928 66 242 0.9 5.2 0.00 0.00 0.00 5 1008.0
20260506190428 66 237 3.5 5.2 0.00 0.00 0.00 5 1008.0
20260506185928 66 265 1.7 7.8 0.00 0.00 0.00 5 1007.9
20260506185428 66 275 2.6 4.3 0.00 0.00 0.00 5 1008.0
20260506184928 66 262 2.6 3.5 0.00 0.00 0.00 5 1008.0
20260506184428 66 120 0.0 7.0 0.00 0.00 0.00 5 1008.1
20260506183928 66 230 1.7 4.3 0.00 0.00 0.00 5 1007.9
20260506183429 66 286 0.9 7.8 0.00 0.00 0.00 5 1008.1
20260506182928 66 222 0.9 7.0 0.00 0.00 0.00 5 1007.6
20260506182428 65 279 0.9 4.3 0.00 0.00 0.00 5 1007.7
20260506181928 65 204 1.7 4.3 0.00 0.00 0.00 5 1007.7
20260506181428 65 239 0.9 3.5 0.00 0.00 0.00 5 1007.4
20260506180928 66 299 0.9 5.2 0.00 0.00 0.00 5 1007.6
20260506180428 66 251 0.9 2.6 0.00 0.00 0.00 5 1007.6
20260506175928 66 265 0.9 3.5 0.00 0.00 0.00 5 1007.4
20260506175428 66 253 2.6 7.8 0.00 0.00 0.00 5 1007.6
20260506174928 66 218 1.7 3.5 0.00 0.00 0.00 5 1007.2
20260506174428 67 291 0.9 4.3 0.00 0.00 0.00 5 1007.3
20260506173928 67 231 0.9 2.6 0.00 0.00 0.00 5 1007.5
20260506173428 67 252 0.0 2.6 0.00 0.00 0.00 5 1007.6
20260506172928 67 269 2.6 3.5 0.00 0.00 0.00 5 1007.6
20260506172427 67 135 0.9 3.5 0.00 0.00 0.00 5 1007.5
20260506171927 68 292 0.9 3.5 0.00 0.00 0.00 5 1007.5
20260506171427 68 276 3.5 8.7 0.00 0.00 0.00 5 1007.2
20260506170927 68 249 1.7 5.2 0.00 0.00 0.00 5 1007.4
20260506170427 68 256 2.6 4.3 0.00 0.00 0.00 5 1007.2
20260506165927 68 261 0.9 3.5 0.00 0.00 0.00 5 1007.4
20260506165427 68 253 0.9 4.3 0.00 0.00 0.00 5 1007.1
20260506164927 68 310 0.9 3.5 0.00 0.00 0.00 5 1007.2
20260506164427 69 229 2.6 4.3 0.00 0.00 0.00 5 1007.1
20260506163927 69 267 1.7 4.3 0.00 0.00 0.00 5 1007.3
20260506163427 69 134 1.7 7.0 0.00 0.00 0.00 5 1007.4
20260506162927 69 338 4.3 7.0 0.00 0.00 0.00 5 1007.4
20260506162427 69 200 2.6 3.5 0.00 0.00 0.00 5 1007.3
20260506161927 69 214 3.5 8.7 0.00 0.00 0.00 5 1007.3
20260506161427 69 309 4.3 8.7 0.00 0.00 0.00 5 1007.3
20260506160927 69 181 1.7 7.0 0.00 0.00 0.00 5 1007.3
20260506160427 70 251 1.7 7.8 0.00 0.00 0.00 5 1007.1
20260506155927 70 270 3.5 7.8 0.00 0.00 0.00 5 1007.4
20260506155427 70 239 3.5 11.3 0.00 0.00 0.00 5 1007.4
20260506154927 70 226 4.3 10.4 0.00 0.00 0.00 5 1007.2
20260506154427 70 177 6.1 10.4 0.00 0.00 0.00 5 1007.3
20260506153927 70 220 4.3 7.0 0.00 0.00 0.00 4 1007.3
20260506153427 70 218 0.9 3.5 0.00 0.00 0.00 5 1007.5
20260506152927 70 271 1.7 5.2 0.00 0.00 0.00 4 1007.3
20260506152427 70 149 3.5 11.3 0.00 0.00 0.00 5 1007.4
20260506151927 70 187 5.2 7.0 0.00 0.00 0.00 5 1007.3
20260506151427 70 170 4.3 7.8 0.00 0.00 0.00 4 1007.4
20260506150927 70 208 0.9 4.3 0.00 0.00 0.00 4 1007.5
20260506150427 71 221 2.6 9.6 0.00 0.00 0.00 4 1007.4
20260506145927 71 148 7.0 15.6 0.00 0.00 0.00 4 1007.1
20260506145427 71 176 0.0 9.6 0.00 0.00 0.00 4 1007.2
20260506144926 72 217 4.3 8.7 0.00 0.00 0.00 4 1007.0
20260506144427 72 216 5.2 8.7 0.00 0.00 0.00 4 1007.0
20260506143926 71 137 0.9 4.3 0.00 0.00 0.00 4 1007.4
20260506143426 71 265 1.7 11.3 0.00 0.00 0.00 4 1007.4
20260506142926 71 135 2.6 9.6 0.00 0.00 0.00 4 1007.3
20260506142426 71 218 1.7 10.4 0.00 0.00 0.00 4 1007.3
20260506141926 71 233 7.0 9.6 0.00 0.00 0.00 4 1007.7
20260506141426 71 197 5.2 9.6 0.00 0.00 0.00 4 1007.8
20260506140926 71 174 6.1 13.0 0.00 0.00 0.00 4 1007.6
20260506140426 72 205 3.5 7.8 0.00 0.00 0.00 4 1007.6
20260506135926 73 170 4.3 13.0 0.00 0.00 0.00 4 1007.4
20260506135426 72 130 8.7 25.2 0.00 0.00 0.00 4 1007.3
20260506134926 72 216 2.6 10.4 0.00 0.00 0.00 4 1007.3
20260506134426 72 199 4.3 9.6 0.00 0.00 0.00 4 1007.2
20260506133426 72 285 3.5 11.3 0.00 0.00 0.00 4 1007.6
20260506132926 72 169 10.4 21.7 0.00 0.00 0.00 4 1007.6
20260506132426 72 150 3.5 9.6 0.00 0.00 0.00 4 1007.5
20260506131926 72 242 7.0 14.8 0.00 0.00 0.00 4 1007.7
20260506131426 72 189 6.1 9.6 0.00 0.00 0.00 4 1007.8
20260506130926 72 179 2.6 9.6 0.00 0.00 0.00 4 1007.6
20260506130426 71 140 6.1 11.3 0.00 0.00 0.00 4 1007.9
20260506125926 71 125 7.0 15.6 0.00 0.00 0.00 4 1007.9
20260506125426 71 269 4.3 12.2 0.00 0.00 0.00 4 1008.1
20260506124926 71 231 7.8 13.0 0.00 0.00 0.00 4 1008.1
20260506124426 71 173 5.2 14.8 0.00 0.00 0.00 4 1007.8
20260506123926 71 151 3.5 13.0 0.00 0.00 0.00 4 1007.8
20260506123426 71 145 5.2 7.8 0.00 0.00 0.00 4 1008.0
20260506122926 71 150 8.7 18.2 0.00 0.00 0.00 4 1008.2
20260506122426 70 232 7.0 10.4 0.00 0.00 0.00 4 1007.9
20260506121926 70 162 2.6 9.6 0.00 0.00 0.00 4 1008.2
20260506121426 70 246 2.6 8.7 0.00 0.00 0.00 4 1008.2
20260506120925 70 181 8.7 17.4 0.00 0.00 0.00 4 1007.9
20260506120425 71 179 10.4 17.4 0.00 0.00 0.00 4 1008.1
20260506115925 71 184 7.0 15.6 0.00 0.00 0.00 5 1008.0
20260506115425 70 301 7.8 16.5 0.00 0.00 0.00 5 1008.1
20260506114925 70 143 2.6 11.3 0.00 0.00 0.00 5 1008.1
20260506114425 70 160 4.3 7.0 0.00 0.00 0.00 5 1008.1
20260506113925 70 179 4.3 11.3 0.00 0.00 0.00 5 1008.1
20260506113425 70 216 9.6 20.0 0.00 0.00 0.00 5 1008.5
20260506112925 69 239 5.2 12.2 0.00 0.00 0.00 5 1008.3
20260506112425 69 200 7.0 13.0 0.00 0.00 0.00 5 1008.6
20260506111925 69 191 13.0 15.6 0.00 0.00 0.00 5 1008.5
20260506111425 69 218 8.7 16.5 0.00 0.00 0.00 5 1008.5
20260506110925 69 217 17.4 19.1 0.00 0.00 0.00 5 1008.7
20260506110425 69 175 7.8 12.2 0.00 0.00 0.00 5 1008.5
20260506105925 68 210 7.0 17.4 0.00 0.00 0.00 5 1008.7
20260506105425 68 162 2.6 11.3 0.00 0.00 0.00 5 1008.6
20260506104925 68 202 3.5 11.3 0.00 0.00 0.00 5 1008.6
20260506104425 68 187 8.7 15.6 0.00 0.00 0.00 5 1008.7
20260506103925 68 156 5.2 10.4 0.00 0.00 0.00 5 1008.6
20260506103425 68 146 2.6 8.7 0.00 0.00 0.00 5 1008.6
20260506102925 68 205 2.6 13.0 0.00 0.00 0.00 5 1008.9
20260506102425 67 130 2.6 12.2 0.00 0.00 0.00 5 1009.0
20260506101925 67 171 2.6 12.2 0.00 0.00 0.00 5 1009.1
20260506101425 66 324 4.3 10.4 0.00 0.00 0.00 6 1008.9
20260506100925 65 104 6.1 9.6 0.00 0.00 0.00 6 1009.0
20260506100425 65 229 6.1 13.0 0.00 0.00 0.00 6 1009.1
20260506095925 65 179 3.5 7.0 0.00 0.00 0.00 6 1009.2
20260506095425 65 188 7.0 15.6 0.00 0.00 0.00 6 1009.4
20260506094924 65 222 5.2 8.7 0.00 0.00 0.00 6 1009.0
20260506094425 65 143 5.2 14.8 0.00 0.00 0.00 6 1009.2
20260506093924 64 203 4.3 10.4 0.00 0.00 0.00 6 1009.2
20260506093424 64 189 8.7 10.4 0.00 0.00 0.00 6 1009.3
20260506092924 64 245 3.5 8.7 0.00 0.00 0.00 6 1009.0
20260506092424 64 208 2.6 8.7 0.00 0.00 0.00 6 1009.0
20260506091924 64 204 6.1 19.1 0.00 0.00 0.00 6 1009.3
20260506091424 64 156 8.7 15.6 0.00 0.00 0.00 6 1009.2
20260506090924 64 191 8.7 12.2 0.00 0.00 0.00 6 1009.2
20260506090424 64 313 4.3 12.2 0.00 0.00 0.00 6 1009.2
20260506085924 64 209 3.5 8.7 0.00 0.00 0.00 6 1009.2
20260506085424 64 162 5.2 9.6 0.00 0.00 0.00 6 1009.2
20260506084924 64 134 3.5 11.3 0.00 0.00 0.00 6 1009.1
20260506084424 64 173 6.1 16.5 0.00 0.00 0.00 6 1009.6
20260506083924 63 140 7.0 14.8 0.00 0.00 0.00 6 1009.2
20260506083424 63 188 4.3 9.6 0.00 0.00 0.00 6 1009.4
20260506082924 62 153 8.7 10.4 0.00 0.00 0.00 6 1009.2
20260506082424 62 149 7.0 10.4 0.00 0.00 0.00 6 1009.3
20260506081924 62 127 3.5 7.8 0.00 0.00 0.00 6 1009.3
20260506081424 61 114 1.7 7.8 0.00 0.00 0.00 6 1009.4
20260506080924 61 175 1.7 7.8 0.00 0.00 0.00 6 1009.5
20260506080424 61 148 7.0 9.6 0.00 0.00 0.00 6 1009.4
20260506073424 59 147 1.7 12.2 0.00 0.00 0.00 6 1009.7
20260506072924 59 207 3.5 4.3 0.00 0.00 0.00 6 1009.5
20260506072424 59 261 1.7 7.0 0.00 0.00 0.00 7 1009.6
20260506071924 58 276 2.6 7.8 0.00 0.00 0.00 7 1009.6
20260506071424 58 201 2.6 5.2 0.00 0.00 0.00 7 1009.7
20260506070923 58 157 2.6 5.2 0.00 0.00 0.00 7 1009.6
20260506070423 57 206 7.8 12.2 0.00 0.00 0.00 7 1009.6
20260506062423 55 243 4.3 9.6 0.00 0.00 0.00 7 1009.9
20260506061923 55 186 0.9 8.7 0.00 0.00 0.00 7 1009.9
20260506061423 55 215 6.1 9.6 0.00 0.00 0.00 7 1010.0
20260506060923 55 246 1.7 5.2 0.00 0.00 0.00 7 1009.7
20260506060423 55 182 1.7 7.0 0.00 0.00 0.00 7 1009.7